Skip Page Navigation
NASA JPL Caltech
NASA Logo - Jet Propulsion Laboratory + View the NASA Portal
+ Center for Near-Earth Object Studies
JPL Home Earth Solar System Stars & Galaxies Technology
JPL Solar System Dynamics
BODIES ORBITS EPHEMERIDES TOOLS PHYSICAL DATA DISCOVERY FAQ SITE MAP
IMPORTANT: The SSD Announcement email list is now available. Major changes are coming in the near future, including possible hostname and/or URL changes. To be notified of such changes, subscribe to this email list.

Please visit this page for more details.


JPL Small-Body Database Browser
Search: [ help ]  
533 Sara (A904 HC)
Classification: Main-belt Asteroid          SPK-ID: 2000533
Ephemeris | Orbit Diagram | Orbital Elements | Mission Design | Physical Parameters | Discovery Circumstances | Close-Approach Data ]

[ hide orbit diagram ]

For accurate long-term ephemerides, please instead use our Horizons system.This orbit viewer was implemented using two-body methods, and hence should not be used for determining accurate long-term trajectories (over several years or decades) or planetary encounter circumstances.


[ revert to old Java-based viewer ]

Orbital Elements at Epoch 2458600.5 (2019-Apr-27.0) TDB
Reference: JPL 38 (heliocentric ecliptic J2000)
 Element Value Uncertainty (1-sigma)   Units 
e .04537357745879288 4.1849e-08  
a 2.97833250142215 1.2616e-08 au
q 2.843194900970832 1.2418e-07 au
i 6.556866093439121 4.7995e-06 deg
node 180.3202136108427 3.3128e-05 deg
peri 32.73099150089028 5.4787e-05 deg
M 124.8378700380817 4.4083e-05 deg
tp 2457949.468432219831
(2017-Jul-14.96843222)
0.00022916 TDB
period 1877.405985294092
5.14
1.1929e-05
3.266e-08
d
yr
n .191753942844497 1.2184e-09 deg/d
Q 3.113470101873468 1.3188e-08 au
  Orbit Determination Parameters
   # obs. used (total)      2899  
   data-arc span      43114 days (118.04 yr)  
   first obs. used      1901-11-12  
   last obs. used      2019-11-27  
   planetary ephem.      DE431  
   SB-pert. ephem.      SB431-N16  
   condition code      0  
   norm. resid. RMS      .47753  
   source      ORB  
   producer      Otto Matic  
   solution date      2019-Dec-03 20:08:49  

Additional Information
 Earth MOID = 1.84048 au 
 Jupiter MOID = 1.84884 au 
 T_jup = 3.249 
[ show covariance matrix ]

Ephemeris | Orbit Diagram | Orbital Elements | Mission Design | Physical Parameters | Discovery Circumstances | Close-Approach Data ]

Physical Parameter Table
Parameter Symbol Value Units Sigma Reference Notes
absolute magnitude H 9.6   n/a MPO416708  
diameter diameter 30.819 km 0.430 urn:nasa:pds:neowise_diameters_albedos::2.0[mainbelt] (http://adsabs.harvard.edu/abs/2014ApJ...791..121M)  
rotation period rot_per 11.654 h n/a LCDB (Rev. 2019-January); Warner et al., 2009 Published Reference List:
[Behrend, R. (2006) Observatoire de Geneve web site, http://obswww.unige.ch/~behrend/page_cou.html]
[Behrend, R. (2007) Observatoire de Geneve web site, http://obswww.unige.ch/~behrend/page_cou.html]
[Fleenor, M.L. (2007) Minor Planet Bull. 34, 129.]
geometric albedo albedo 0.252   0.035 urn:nasa:pds:neowise_diameters_albedos::2.0[mainbelt] (http://adsabs.harvard.edu/abs/2014ApJ...791..121M)  
B-V BV 0.871   0.028 EAR-A-5-DDR-UBV-MEAN-VALUES-V1.2 #obs=3; phase (min.=6.07, mean=11.69, max.=14.51) deg.
U-B UB 0.386   0.067 EAR-A-5-DDR-UBV-MEAN-VALUES-V1.2 #obs=2; phase (min.=6.07, mean=10.28, max.=14.50) deg.
Tholen spectral type spec_T S   n/a EAR-A-5-DDR-TAXONOMY-V4.0 used 2 color indices
SMASSII spectral type spec_B S   n/a EAR-A-5-DDR-TAXONOMY-V4.0 based on a high-resolution spectrum by Xu et al. (1995) or Bus and Binzel (2002)

533 Sara (A904 HC)          Discovered 1904-Apr-19 by Dugan, R. S. at Heidelberg
Reference: DISCOVERY.DBLast Updated: 2003-08-29

[ show close-approach data ]
Alternate Designations
 A904 HC = A901 VB = A911 UB 
Ephemeris | Orbit Diagram | Orbital Elements | Mission Design | Physical Parameters | Discovery Circumstances | Close-Approach Data ]
ABOUT SSD CREDITS/AWARDS PRIVACY/COPYRIGHT GLOSSARY LINKS
FirstGov 2019-Dec-07 19:21 UT
(server date/time)  
NASA Home Page
Site Manager:   Ryan S. Park
Webmaster  Alan B. Chamberlin